When you browse on this site, cookies collect data to enhance your experience and personalize the content and advertising you see.
Visit our Privacy Policy to learn more. By continuing to use the site, you agree to this use of cookies and data.
  • In Hungary
  • List of Countries
  • For 7 days
  • Water Temperature
  • Satellite Maps
  • Weather Map
  • News
  • Weather Widgets
  • user-avatar
    Login

    Hourly Weather Santiago del Estero

    Today, 21 March, Thursday

    Time Temperature Precipitation Wind Pressure Humidity
    00:00 +20°C° 0 mm 1 mps 749 mmHg 56%
    01:00 +19°C° 0 mm 1 mps 749 mmHg 58%
    02:00 +18°C° 0 mm 1 mps 749 mmHg 56%
    03:00 +18°C° 0 mm 1 mps 749 mmHg 58%
    04:00 +16°C° 0 mm 1 mps 748 mmHg 59%
    05:00 +16°C° 0 mm 1 mps 748 mmHg 61%
    06:00 +18°C° 0 mm 1 mps 748 mmHg 58%
    07:00 +18°C° 0 mm 1 mps 748 mmHg 56%
    08:00 +19°C° 0 mm 1 mps 748 mmHg 54%
    09:00 +20°C° 0 mm 2 mps 748 mmHg 51%
    10:00 +22°C° 0 mm 3 mps 747 mmHg 48%
    11:00 +25°C° 0 mm 3 mps 747 mmHg 44%
    12:00 +26°C° 0 mm 4 mps 746 mmHg 44%
    13:00 +27°C° 0 mm 4 mps 745 mmHg 43%
    14:00 +28°C° 0 mm 4 mps 744 mmHg 42%
    15:00 +28°C° 0 mm 4 mps 744 mmHg 44%
    16:00 +27°C° 0 mm 4 mps 743 mmHg 45%
    17:00 +27°C° 0 mm 3 mps 743 mmHg 47%
    18:00 +26°C° 0 mm 3 mps 743 mmHg 48%
    19:00 +25°C° 0 mm 3 mps 743 mmHg 50%
    20:00 +25°C° 0 mm 2 mps 743 mmHg 51%
    21:00 +24°C° 0 mm 3 mps 744 mmHg 52%
    22:00 +24°C° 0 mm 3 mps 744 mmHg 53%
    23:00 +24°C° 0 mm 3 mps 744 mmHg 54%

    Tomorrow, 22 March, Friday

    Time Temperature Precipitation Wind Pressure Humidity
    00:00 +22°C° 0 mm 3 mps 744 mmHg 56%
    01:00 +21°C° 0 mm 3 mps 744 mmHg 58%
    02:00 +20°C° 0 mm 3 mps 743 mmHg 61%
    03:00 +20°C° 0 mm 3 mps 744 mmHg 61%
    04:00 +20°C° 0 mm 3 mps 744 mmHg 61%
    05:00 +20°C° 0 mm 3 mps 744 mmHg 61%
    06:00 +20°C° 0 mm 3 mps 744 mmHg 61%
    07:00 +21°C° 0 mm 4 mps 745 mmHg 61%
    08:00 +21°C° 0 mm 4 mps 745 mmHg 61%
    09:00 +23°C° 0 mm 4 mps 745 mmHg 57%
    10:00 +26°C° 0 mm 4 mps 745 mmHg 52%
    11:00 +28°C° 0 mm 4 mps 746 mmHg 48%
    12:00 +29°C° 0 mm 4 mps 745 mmHg 46%
    13:00 +30°C° 0 mm 4 mps 744 mmHg 43%
    14:00 +32°C° 0 mm 4 mps 744 mmHg 41%
    15:00 +32°C° 0 mm 4 mps 743 mmHg 42%
    16:00 +30°C° 0 mm 4 mps 743 mmHg 43%
    17:00 +30°C° 0 mm 4 mps 742 mmHg 44%
    18:00 +29°C° 0 mm 3 mps 743 mmHg 48%
    19:00 +27°C° 0 mm 3 mps 743 mmHg 52%
    20:00 +25°C° 0 mm 2 mps 744 mmHg 55%
    21:00 +25°C° 0 mm 3 mps 744 mmHg 56%
    22:00 +24°C° 0 mm 3 mps 744 mmHg 57%
    23:00 +24°C° 0 mm 3 mps 744 mmHg 58%

    Day after tomorrow, 23 March, Saturday

    Time Temperature Precipitation Wind Pressure Humidity
    00:00 +22°C° 0 mm 3 mps 744 mmHg 60%
    01:00 +21°C° 0 mm 3 mps 744 mmHg 62%
    02:00 +21°C° 0 mm 3 mps 744 mmHg 64%
    03:00 +20°C° 0 mm 3 mps 744 mmHg 66%
    04:00 +20°C° 0 mm 3 mps 743 mmHg 68%
    05:00 +20°C° 0 mm 3 mps 743 mmHg 69%
    06:00 +20°C° 0 mm 3 mps 744 mmHg 66%
    07:00 +21°C° 0 mm 4 mps 744 mmHg 64%
    08:00 +22°C° 0 mm 4 mps 744 mmHg 61%
    09:00 +25°C° 0 mm 5 mps 744 mmHg 55%
    10:00 +28°C° 0 mm 5 mps 744 mmHg 50%
    11:00 +30°C° 0 mm 6 mps 744 mmHg 44%
    12:00 +32°C° 0 mm 6 mps 743 mmHg 41%
    13:00 +33°C° 0 mm 5 mps 742 mmHg 39%
    14:00 +35°C° 0 mm 5 mps 741 mmHg 37%
    15:00 +35°C° 0 mm 5 mps 741 mmHg 37%
    16:00 +35°C° 0 mm 4 mps 740 mmHg 37%
    17:00 +34°C° 0 mm 4 mps 740 mmHg 37%
    18:00 +31°C° 0 mm 3 mps 740 mmHg 43%
    19:00 +29°C° 0 mm 2 mps 740 mmHg 48%
    20:00 +27°C° 0 mm 1 mps 741 mmHg 54%
    21:00 +26°C° 0 mm 2 mps 741 mmHg 55%
    22:00 +26°C° 0 mm 2 mps 742 mmHg 55%
    23:00 +26°C° 0 mm 3 mps 742 mmHg 56%

    24 March, Sunday

    Time Temperature Precipitation Wind Pressure Humidity
    00:00 +25°C° 0 mm 3 mps 742 mmHg 57%
    01:00 +24°C° 0 mm 3 mps 742 mmHg 58%
    02:00 +24°C° 0 mm 3 mps 742 mmHg 59%
    03:00 +23°C° 0 mm 2 mps 742 mmHg 61%
    04:00 +21°C° 0 mm 2 mps 742 mmHg 63%
    05:00 +22°C° 0 mm 1 mps 742 mmHg 65%
    06:00 +23°C° 0 mm 1 mps 743 mmHg 63%
    07:00 +23°C° 0 mm 1 mps 744 mmHg 61%
    08:00 +24°C° 0 mm 1 mps 744 mmHg 59%
    09:00 +25°C° 0 mm 1 mps 744 mmHg 57%
    10:00 +26°C° 0 mm 1 mps 744 mmHg 55%
    11:00 +27°C° 0 mm 1 mps 744 mmHg 53%
    12:00 +29°C° 0 mm 2 mps 744 mmHg 50%
    13:00 +30°C° 0 mm 2 mps 743 mmHg 47%
    14:00 +33°C° 0 mm 3 mps 743 mmHg 44%
    15:00 +33°C° 0 mm 3 mps 742 mmHg 45%
    16:00 +31°C° 0 mm 3 mps 742 mmHg 45%
    17:00 +32°C° 0 mm 4 mps 741 mmHg 46%
    18:00 +30°C° 0 mm 3 mps 742 mmHg 49%
    19:00 +28°C° 0 mm 3 mps 742 mmHg 51%
    20:00 +27°C° 0 mm 2 mps 743 mmHg 54%
    21:00 +27°C° 0 mm 2 mps 743 mmHg 53%
    22:00 +27°C° 0 mm 2 mps 744 mmHg 51%
    23:00 +27°C° 0 mm 2 mps 744 mmHg 49%

    25 March, Monday

    Time Temperature Precipitation Wind Pressure Humidity
    00:00 +27°C° 0 mm 2 mps 744 mmHg 49%
    01:00 +26°C° 0 mm 2 mps 744 mmHg 49%
    02:00 +26°C° 0 mm 3 mps 744 mmHg 49%
    03:00 +24°C° 0 mm 3 mps 744 mmHg 46%
    04:00 +22°C° 0 mm 3 mps 744 mmHg 43%
    05:00 +21°C° 0 mm 3 mps 744 mmHg 40%
    06:00 +22°C° 0 mm 4 mps 745 mmHg 38%
    07:00 +22°C° 0 mm 4 mps 746 mmHg 36%
    08:00 +23°C° 0 mm 5 mps 746 mmHg 34%
    09:00 +25°C° 0 mm 4 mps 747 mmHg 33%
    10:00 +26°C° 0 mm 4 mps 747 mmHg 33%
    11:00 +27°C° 0 mm 4 mps 747 mmHg 32%
    12:00 +27°C° 0 mm 4 mps 747 mmHg 36%
    13:00 +26°C° 0 mm 3 mps 746 mmHg 40%
    14:00 +26°C° 0 mm 3 mps 746 mmHg 43%
    15:00 +25°C° 0 mm 3 mps 746 mmHg 43%
    16:00 +25°C° 0 mm 4 mps 745 mmHg 43%
    17:00 +25°C° 0 mm 4 mps 745 mmHg 43%
    18:00 +23°C° 0 mm 4 mps 746 mmHg 42%
    19:00 +23°C° 0 mm 4 mps 746 mmHg 41%
    20:00 +22°C° 0 mm 4 mps 747 mmHg 40%
    21:00 +22°C° 0 mm 3 mps 747 mmHg 41%
    22:00 +21°C° 0 mm 3 mps 747 mmHg 42%
    23:00 +21°C° 0 mm 2 mps 748 mmHg 43%

    26 March, Tuesday

    Time Temperature Precipitation Wind Pressure Humidity
    00:00 +21°C° 0 mm 2 mps 748 mmHg 44%
    01:00 +20°C° 0 mm 2 mps 748 mmHg 45%
    02:00 +20°C° 0 mm 2 mps 748 mmHg 46%
    03:00 +20°C° 0 mm 2 mps 748 mmHg 48%
    04:00 +21°C° 0 mm 1 mps 748 mmHg 50%
    05:00 +21°C° 0 mm 1 mps 748 mmHg 52%
    06:00 +20°C° 0.1 mm 1 mps 749 mmHg 56%
    07:00 +20°C° 0.1 mm 1 mps 749 mmHg 59%
    08:00 +20°C° 0.1 mm 1 mps 750 mmHg 62%
    09:00 +19°C° 0.1 mm 2 mps 750 mmHg 61%
    10:00 +19°C° 0.1 mm 2 mps 750 mmHg 60%
    11:00 +19°C° 0.1 mm 2 mps 751 mmHg 59%
    12:00 +20°C° 0 mm 2 mps 750 mmHg 55%
    13:00 +21°C° 0 mm 3 mps 750 mmHg 52%
    14:00 +21°C° 0 mm 3 mps 749 mmHg 49%
    15:00 +22°C° 0 mm 3 mps 749 mmHg 48%
    16:00 +22°C° 0 mm 3 mps 749 mmHg 48%
    17:00 +24°C° 0 mm 3 mps 748 mmHg 48%
    18:00 +21°C° 0 mm 3 mps 749 mmHg 52%
    19:00 +20°C° 0 mm 2 mps 749 mmHg 56%
    20:00 +19°C° 0 mm 2 mps 749 mmHg 60%
    21:00 +18°C° 0 mm 2 mps 749 mmHg 63%
    22:00 +19°C° 0 mm 1 mps 749 mmHg 65%
    23:00 +18°C° 0 mm 1 mps 750 mmHg 68%
    Show more